Weather History for Valparaiso, IN

Change the Weather History Date:

Monday, April 9, 2012

  Actual Average Record
Temperature  
Mean Temperature 51 °F 47 °F  
Max Temperature 62 °F 57 °F 79 °F (2013)
Min Temperature 40 °F 36 °F 22 °F (2007)
Degree Days  
Heating Degree Days 14 18  
Month to date heating degree days 116 178  
Since 1 July heating degree days 5755  
Cooling Degree Days 0 0  
Month to date cooling degree days 0 0  
Year to date cooling degree days 39 0  
Growing Degree Days 2 (Base 50)    
Moisture  
Dew Point 28 °F    
Average Humidity 46    
Maximum Humidity 85    
Minimum Humidity 21    
Precipitation  
Precipitation 0.02 in 0.12 in 0.03 in (2002)
Month to date precipitation 0.03 0.93  
Year to date precipitation 5.04 6.58  
Sea Level Pressure  
Sea Level Pressure 30.00 in    
Wind  
Wind Speed 11 mph (WNW)    
Max Wind Speed 31 mph    
Max Gust Speed 37 mph    
Visibility 10 miles    
Events Rain    
T = Trace of Precipitation, MM = Missing Value Source: NWS Daily Summary

Daily Weather History Graph

Daily Weather History Graph

Search for Another Location

Airport:

Trip Planner

Search our weather history database for the weather conditions in past years. The results will help you decide how hot, cold, wet, or windy it might be!

Date:

Astronomy

Apr. 09, 2012 Rise Set
Actual Time 6:17 AM CDT 7:22 PM CDT
Civil Twilight 5:48 AM CDT 7:50 PM CDT
Nautical Twilight 5:14 AM CDT 8:24 PM CDT
Astronomical Twilight 4:39 AM CDT 9:00 PM CDT
Moon 11:20 PM CDT (4/9) 8:01 AM CDT (4/9)
Length of Visible Light 14h 02m
Length of Day
13h 05m
Waning Gibbous, 88% of the Moon is Illuminated
Apr 9
Waning Gibbous
Apr 13
Last Quarter
Apr 21
New
Apr 29
First Quarter
May 5
Full

Hourly Weather History & Observations

Time (CDT) Temp. Windchill Dew Point Humidity Pressure Visibility Wind Dir Wind Speed Gust Speed Precip Events Conditions
12:53 AM 46.0 °F - 37.0 °F 71% 30.10 in 10.0 mi Calm Calm - N/A   Overcast
1:53 AM 46.0 °F - 37.0 °F 71% 30.07 in 10.0 mi Calm Calm - N/A   Overcast
2:53 AM 46.0 °F 44.8 °F 36.0 °F 68% 30.05 in 10.0 mi East 3.5 mph - N/A   Overcast
3:53 AM 45.0 °F 42.6 °F 37.0 °F 74% 30.02 in 10.0 mi East 4.6 mph - N/A   Overcast
4:53 AM 45.0 °F - 37.9 °F 76% 30.02 in 10.0 mi Calm Calm - 0.02 in Rain Light Rain
5:53 AM 44.1 °F 40.8 °F 39.9 °F 85% 29.99 in 10.0 mi South 5.8 mph - 0.00 in   Overcast
6:53 AM 43.0 °F 40.3 °F 37.0 °F 80% 30.00 in 10.0 mi SSW 4.6 mph - N/A   Clear
7:53 AM 48.0 °F - 39.0 °F 71% 30.01 in 10.0 mi SW 5.8 mph - N/A   Clear
8:53 AM 54.0 °F - 37.9 °F 55% 30.01 in 10.0 mi WNW 13.8 mph 17.3 mph N/A   Clear
9:53 AM 55.9 °F - 27.0 °F 33% 30.01 in 10.0 mi NNW 12.7 mph 19.6 mph N/A   Clear
10:53 AM 57.9 °F - 23.0 °F 26% 30.02 in 10.0 mi NW 17.3 mph 23.0 mph N/A   Clear
11:53 AM 57.9 °F - 24.1 °F 27% 30.01 in 10.0 mi WNW 13.8 mph 24.2 mph N/A   Clear
12:53 PM 60.1 °F - 23.0 °F 24% 29.99 in 10.0 mi WNW 19.6 mph 27.6 mph N/A   Mostly Cloudy
1:53 PM 61.0 °F - 23.0 °F 23% 29.97 in 10.0 mi West 24.2 mph 34.5 mph N/A   Mostly Cloudy
2:53 PM 60.1 °F - 19.9 °F 21% 29.96 in 10.0 mi WNW 16.1 mph 29.9 mph N/A   Clear
4:53 PM 61.0 °F - 21.9 °F 22% 29.94 in 10.0 mi West 25.3 mph 32.2 mph N/A   Partly Cloudy
5:53 PM 59.0 °F - 19.0 °F 21% 29.92 in 10.0 mi WNW 17.3 mph 34.5 mph N/A   Partly Cloudy
6:53 PM 57.0 °F - 19.0 °F 23% 29.93 in 10.0 mi NW 11.5 mph 25.3 mph N/A   Clear
7:53 PM 54.0 °F - 19.9 °F 26% 29.94 in 10.0 mi WNW 10.4 mph 23.0 mph N/A   Clear
8:53 PM 52.0 °F - 18.0 °F 26% 29.96 in 10.0 mi WNW 11.5 mph 23.0 mph N/A   Clear
9:53 PM 51.1 °F - 21.0 °F 31% 29.97 in 10.0 mi NW 8.1 mph 19.6 mph N/A   Clear
10:53 PM 44.1 °F 40.1 °F 28.0 °F 53% 29.99 in 10.0 mi North 6.9 mph - N/A   Clear
11:53 PM 41.0 °F 35.8 °F 28.9 °F 62% 30.01 in 10.0 mi North 8.1 mph - N/A   Clear